Location: Ferintosh
(52.7647°N, 112.9692°W)
Time: 14:19:54
(UTC+00:00)

Tiros 1 despin weight - Pass Details

Date: 22 May 2024
Orbit: 577 x 621 km, 48.2° (Epoch: 19 June)

Event Time Altitude Azimuth Distance (km) Brightness Sun altitude
Exits shadow 10:04:31 - 247° (WSW) 1,993 ? -9.3°
Reaches altitude 10° 10:04:46 10° 246° (WSW) 1,897 ? -9.3°
Maximum altitude 10:08:54 45° 174° (S) 798 ? -8.9°
Drops below altitude 10° 10:13:01 10° 102° (ESE) 1,888 ? -8.5°
Sets 10:15:21 0° 96° (E) 2,786 ? -8.3°
